Showing default

O3B FM19, 44113

Orbit data source: Space-Track

O3B FM19, 44113 is a payload satellite owned by O3B SES (JE) that was launched on Thu, 04 Apr 2019 UTC via a SOYUZ-ST-B launch vehicle from the French Guiana (FRGUI). Payload-class satellites include a variety of spacecraft equipped with specific instruments for various scientific and technological missions. These include communications satellites like Starlink; space stations such as the ISS; scientific satellites like the Hubble; Earth observation satellites from companies like Planet Labs, Umbra, and HawkEye 360; GPS; miniature CubeSats for education and research; and military/defense satellites.

Loading next visibility...
Identifier
44113, 2019-020B
Orbit
Active
Last TLE update
1 day ago
Origin
Manufacturer
Thales Alenia
Mission
Operational Commercial Communications
Bus & Motor
PRISMA?, LS-400 AOCS?
Mass
700 kg wet, ~500 kg dry
Launch date (UTC)
2019-04-04 (6 years ago)
Launch vehicle
SOYUZ-ST-B
Launch site
French Guiana (FRGUI)
Object type
Payload
Rocket body
Debris
Shape & HBR
Trap Box + 2 Pan, 12 m
Radar Cross Section
21.980 m², Large (>1 m²)

Expand to show TLE details & history

TLE from 1 day ago
0 O3B FM19
1 44113U 19020B   25182.03151868 -.00000024  00000-0  00000-0 0  9992
2 44113   0.0398  30.8426 0003490  65.5883 263.6063  5.00115057113879
Epoch: 2025-07-01T00:45Z
TLE epoch observation values (Epoch: 2025-07-01T00:45:23.213Z)
Latitude
-0.02188°
Longitude
69.32058°
Altitude
8,064.946 km
Speed
5.254 km/s
True Right ascension
00h 00m 00s
True Declination
0° 01' 19"
Sunlit
Object was in daylight at epoch
Visualization orbit readout
Latitude
0.02842°
Longitude
138.93583°
Altitude
8,059.898 km
Speed
5.256 km/s
Apparent Right ascension
03h 50m 52s
Apparent Declination
-12° 42' 33"
Sunlit
Object is in daylight
Visualization observer readout
Local Sidereal Time
13:21:11
Azimuth
298.988° NW
Elevation
-47.341°
Doppler factor
1
Orbital elements
Apogee altitude
8,073.999 km
Perigee altitude
8,063.915 km
Semi-major axis
14,447.094 km
Eccentricity
0.00035
Inclination
0.0398°
RAAN
30.8426°
Arg. of periapsis
65.5883°
True anomaly
Unknown
Mean anomaly
263.6063°
Eccentric anomaly
Unknown
Mean motion
1.24989 °/min
Orbital period
288.02 mins
BSTAR
0
Loading maneuver chart data...
Loading SW <> Apogee altitude chart data...
Loading historical data...
Loading historical data...
Loading historical data...
Loading historical data...
Loading historical data...
Loading historical data...
Loading historical data...
Other satellites on launch #20 in the year 2019 (2019-04-04 UTC)

O3B FM19 Visibility forecast

Observer location: undefined°, undefined°

Span
Click to sort rows by Start time (UTC) header in descending order
Start Az.
Max El. time (UTC)
Max El. Az.
Max El.
End time (UTC)
End Az.
79 mins2025-07-02 03:11:14.732Z232.282° WSW2025-07-02 03:51:14.732Z179.435° S24.358°2025-07-02 04:30:14.732Z128.055° SE
78 mins2025-07-02 09:12:14.732Z231.283° WSW2025-07-02 09:51:14.732Z179.525° S24.337°2025-07-02 10:30:14.732Z128.07° SE
78 mins2025-07-02 15:12:14.732Z231.342° WSW2025-07-02 15:51:14.732Z179.523° S24.381°2025-07-02 16:30:14.732Z127.986° SE
78 mins2025-07-02 21:12:14.732Z231.348° WSW2025-07-02 21:51:14.732Z179.435° S24.401°2025-07-02 22:30:14.732Z127.974° SE
|